Location: Archamps
(46.1365°N, 6.1329°E)
Time: 06:56:19
(UTC+00:00)

Spot 1 - Pass Details

Date: 28 January 2023
Orbit: 575 x 773 km, 98.8° (Epoch: 21 March)

Event Time Altitude Azimuth Distance (km) Brightness Sun altitude
Exits shadow 18:44:19 63° 152° (SSE) 655 4.0 -22.5°
Drops below altitude 10° 18:47:52 10° 188° (S) 1,881 6.6 -23.1°
Sets 18:49:59 0° 191° (S) 2,772 7.6 -23.5°
